Weather History for New Bedford, MA

Change the Weather History Date:

Thursday, October 25, 2012

  Actual Average Record
Temperature  
Mean Temperature 50 °F -  
Max Temperature 64 °F 61 °F 74 °F (1963)
Min Temperature 37 °F 46 °F 24 °F (2003)
Degree Days  
Heating Degree Days 14    
Moisture  
Dew Point 40 °F    
Average Humidity 75    
Maximum Humidity 100    
Minimum Humidity 38    
Precipitation  
Precipitation 0.00 in - - ()
Sea Level Pressure  
Sea Level Pressure 30.26 in    
Wind  
Wind Speed 1 mph (SSE)    
Max Wind Speed 10 mph    
Max Gust Speed -    
Visibility 10 miles    
Events      
Averages and records for this station are not official NWS values.
T = Trace of Precipitation, MM = Missing Value Source: NWS Daily Summary

Daily Weather History Graph

Daily Weather History Graph

Search for Another Location

Airport:

Trip Planner

Search our weather history database for the weather conditions in past years. The results will help you decide how hot, cold, wet, or windy it might be!

Date:

Astronomy

Oct. 25, 2012 Rise Set
Actual Time 7:08 AM EDT 5:47 PM EDT
Civil Twilight 6:39 AM EDT 6:15 PM EDT
Nautical Twilight 6:07 AM EDT 6:47 PM EDT
Astronomical Twilight 5:34 AM EDT 7:20 PM EDT
Moon 3:34 PM EDT (10/25) 2:58 AM EDT (10/25)
Length of Visible Light 11h 35m
Length of Day
10h 38m
Waxing Gibbous, 84% of the Moon is Illuminated
Oct 25
Waxing Gibbous
Oct 29
Full
Nov 6
Last Quarter
Nov 13
New
Nov 20
First Quarter

Hourly Weather History & Observations

Time (EDT) Temp. Dew Point Humidity Pressure Visibility Wind Dir Wind Speed Gust Speed Precip Events Conditions
12:53 AM 43.0 °F 41.0 °F 93% 30.22 in 10.0 mi Calm Calm - N/A   Clear
1:53 AM 42.1 °F 41.0 °F 96% 30.24 in 10.0 mi Calm Calm - N/A   Clear
2:53 AM 41.0 °F 39.0 °F 93% 30.23 in 10.0 mi Calm Calm - N/A   Clear
3:53 AM 39.9 °F 37.9 °F 93% 30.23 in 10.0 mi Calm Calm - N/A   Clear
4:53 AM 37.9 °F 37.0 °F 97% 30.23 in 9.0 mi Calm Calm - N/A   Clear
5:53 AM 37.9 °F 36.0 °F 93% 30.24 in 10.0 mi Calm Calm - N/A   Clear
6:53 AM 37.0 °F 37.0 °F 100% 30.26 in 10.0 mi Calm Calm - N/A   Clear
7:53 AM 39.0 °F 37.0 °F 93% 30.27 in 7.0 mi Calm Calm - N/A   Clear
8:53 AM 48.9 °F 44.1 °F 83% 30.27 in 10.0 mi Calm Calm - N/A   Clear
9:53 AM 55.9 °F 39.0 °F 53% 30.29 in 10.0 mi Calm Calm - N/A   Mostly Cloudy
10:53 AM 57.9 °F 37.0 °F 46% 30.29 in 10.0 mi SE 4.6 mph - N/A   Scattered Clouds
11:53 AM 60.1 °F 43.0 °F 53% 30.30 in 10.0 mi SSE 5.8 mph - N/A   Partly Cloudy
12:53 PM 62.1 °F 42.1 °F 48% 30.28 in 10.0 mi South 5.8 mph - N/A   Partly Cloudy
1:53 PM 64.0 °F 37.9 °F 38% 30.27 in 10.0 mi SSE 5.8 mph - N/A   Clear
2:53 PM 62.1 °F 39.9 °F 44% 30.26 in 10.0 mi SSE 5.8 mph - N/A   Clear
3:53 PM 61.0 °F 43.0 °F 52% 30.26 in 10.0 mi South 10.4 mph - N/A   Clear
4:53 PM 60.1 °F 45.0 °F 57% 30.25 in 10.0 mi South 5.8 mph - N/A   Clear
5:53 PM 55.9 °F 42.1 °F 60% 30.27 in 10.0 mi Calm Calm - N/A   Clear
6:53 PM 51.1 °F 42.1 °F 71% 30.28 in 10.0 mi Calm Calm - N/A   Clear
7:53 PM 48.0 °F 42.1 °F 80% 30.29 in 10.0 mi Calm Calm - N/A   Clear
8:53 PM 44.6 °F 42.8 °F 93% 30.28 in 10.0 mi Calm Calm - N/A   Clear
9:53 PM 44.1 °F 41.0 °F 89% 30.28 in 10.0 mi Calm Calm - N/A   Clear
10:53 PM 43.0 °F 41.0 °F 93% 30.27 in 10.0 mi Calm Calm - N/A   Clear
11:53 PM 42.1 °F 39.9 °F 92% 30.26 in 10.0 mi Calm Calm - N/A   Clear